Weather History for KORE - August, 2014

Change the Weather History Date:

Thursday, August 21, 2014

  Actual Average Record
Temperature  
Mean Temperature 66 °F -  
Max Temperature 71 °F 78 °F 87 °F (2005)
Min Temperature 60 °F 54 °F 46 °F (2007)
Growing Degree Days 16 (Base 50)    
Moisture  
Dew Point 59 °F    
Average Humidity 84    
Maximum Humidity 93    
Minimum Humidity 63    
Precipitation  
Precipitation 0.16 in - - ()
Sea Level Pressure  
Sea Level Pressure 30.08 in    
Wind  
Wind Speed 2 mph (NNE)    
Max Wind Speed 8 mph    
Max Gust Speed -    
Visibility 9 miles    
Events Rain    
Averages and records for this station are not official NWS values.
T = Trace of Precipitation, MM = Missing Value Source: NWS Daily Summary

Daily Weather History Graph

Daily Weather History Graph

Search for Another Location

Airport or City:

Trip Planner

Search our weather history database for the weather conditions in past years. The results will help you decide how hot, cold, wet, or windy it might be!

Date:

Astronomy

Aug. 21, 2014 Rise Set
Actual Time 6:02 AM EDT 7:41 PM EDT
Civil Twilight 5:32 AM EDT 8:11 PM EDT
Nautical Twilight 4:56 AM EDT 8:47 PM EDT
Astronomical Twilight 4:17 AM EDT 9:25 PM EDT
Moon 2:27 AM EDT (8/21) 5:10 PM EDT (8/21)
Length of Visible Light 14h 38m
Length of Day
13h 39m
Waning Crescent, 13% of the Moon is Illuminated
Aug 21
Waning Crescent
Aug 25
New
Sep 2
First Quarter
Sep 8
Full
Sep 15
Last Quarter

Hourly Weather History & Observations

Time (EDT) Temp. Dew Point Humidity Pressure Visibility Wind Dir Wind Speed Gust Speed Precip Events Conditions
12:52 AM 63.0 °F 57.0 °F 81% 30.06 in 10.0 mi Calm Calm - N/A   Mostly Cloudy
1:52 AM 63.0 °F 57.9 °F 84% 30.06 in 10.0 mi Calm Calm - N/A   Mostly Cloudy
2:52 AM 62.1 °F 57.0 °F 84% 30.06 in 10.0 mi East 3.5 mph - N/A   Scattered Clouds
3:52 AM 62.1 °F 57.0 °F 84% 30.06 in 10.0 mi Calm Calm - N/A   Mostly Cloudy
4:52 AM 61.0 °F 57.0 °F 87% 30.06 in 10.0 mi Calm Calm - N/A   Clear
5:52 AM 62.1 °F 57.0 °F 84% 30.07 in 10.0 mi Calm Calm - N/A   Overcast
6:52 AM 61.0 °F 57.0 °F 87% 30.08 in 10.0 mi Calm Calm - N/A   Overcast
7:52 AM 62.1 °F 55.9 °F 80% 30.09 in 10.0 mi Calm Calm - N/A   Overcast
8:52 AM 63.0 °F 57.0 °F 81% 30.10 in 10.0 mi Calm Calm - 0.00 in Rain Light Rain
9:52 AM 64.9 °F 59.0 °F 81% 30.09 in 10.0 mi Calm Calm - 0.00 in   Overcast
10:52 AM 66.9 °F 60.1 °F 79% 30.09 in 10.0 mi Calm Calm - N/A   Overcast
11:52 AM 64.9 °F 62.1 °F 90% 30.10 in 10.0 mi Calm Calm - 0.05 in Rain Light Rain
12:52 PM 64.9 °F 63.0 °F 93% 30.10 in 5.0 mi Calm Calm - 0.05 in Rain Rain
1:52 PM 66.0 °F 61.0 °F 84% 30.09 in 10.0 mi ENE 6.9 mph - 0.03 in   Overcast
2:52 PM 66.9 °F 61.0 °F 81% 30.08 in 10.0 mi ENE 4.6 mph - N/A   Overcast
3:52 PM 69.1 °F 61.0 °F 75% 30.06 in 10.0 mi ENE 3.5 mph - N/A   Overcast
4:52 PM 71.1 °F 57.9 °F 63% 30.06 in 10.0 mi East 8.1 mph - N/A   Mostly Cloudy
5:52 PM 69.1 °F 59.0 °F 70% 30.06 in 10.0 mi ENE 5.8 mph - N/A   Overcast
6:52 PM 68.0 °F 62.1 °F 81% 30.07 in 10.0 mi North 5.8 mph - N/A   Overcast
7:52 PM 64.0 °F 60.1 °F 87% 30.07 in 10.0 mi NNE 5.8 mph - 0.01 in   Overcast
8:52 PM 64.0 °F 60.1 °F 87% 30.09 in 10.0 mi NNE 4.6 mph - N/A   Overcast
9:42 PM 63.0 °F 57.9 °F 84% 30.09 in 10.0 mi North 3.5 mph - 0.00 in   Overcast
9:52 PM 63.0 °F 57.9 °F 84% 30.09 in 10.0 mi North 4.6 mph - 0.00 in   Overcast
10:37 PM 61.0 °F 57.9 °F 90% 30.09 in 9.0 mi North 6.9 mph - 0.00 in   Overcast
10:45 PM 60.1 °F 57.9 °F 93% 30.09 in 9.0 mi North 5.8 mph - 0.00 in   Overcast
10:52 PM 60.1 °F 57.9 °F 93% 30.09 in 6.0 mi North 6.9 mph - 0.00 in Rain Light Rain
11:01 PM 60.1 °F 57.9 °F 93% 30.09 in 4.0 mi North 5.8 mph - 0.00 in Rain Light Rain
11:52 PM 60.1 °F 57.9 °F 93% 30.09 in 4.0 mi North 4.6 mph - 0.02 in Rain Light Rain